DW6658 Weather Reports


time (UTC)temp
C
wind
direction
speed
KPH
gust
KPH
rain 1hr
cm
rain 24hr
cm
rain mn
cm
humidity
%
barometer
mb
20260906150112 21 110 4.8 14.5 0.00 0.00 0.00 89 1020.6
20260906144556 21 138 0.0 14.5 0.00 0.00 0.00 90 1020.5
20260906143055 21 142 0.0 4.8 0.00 0.00 0.00 91 1020.5
20260906141556 21 296 1.6 11.3 0.00 0.00 0.00 92 1020.3
20260906140104 20 123 3.2 8.0 0.00 0.00 0.00 93 1020.2
20260906134558 20 116 6.4 14.5 0.00 0.00 0.00 93 1020.2
20260906133120 20 123 1.6 11.3 0.00 0.00 0.00 94 1020.1
20260906131601 20 110 3.2 8.0 0.00 0.00 0.00 94 1019.7
20260906130109 20 134 4.8 12.9 0.00 0.00 0.00 95 1019.8
20260906124558 20 133 4.8 12.9 0.00 0.00 0.00 95 1019.8
20260906123057 20 236 4.8 12.9 0.00 0.00 0.00 95 1019.7
20260906121557 19 145 4.8 9.7 0.00 0.00 0.00 95 1019.7
20260906120055 19 0 1.6 9.7 0.00 0.00 0.00 95 1019.4
20260906114602 19 0 1.6 8.0 0.00 0.00 0.00 96 1019.5
20260906113101 19 229 1.6 11.3 0.00 0.00 0.00 96 1019.6
20260906111618 19 139 1.6 6.4 0.00 0.00 0.00 96 1019.4
20260906104601 19 0 0.0 0.0 0.00 0.00 0.00 96 1018.7
20260906103101 19 0 0.0 1.6 0.00 0.00 0.00 96 1018.7
20260906101556 19 0 0.0 4.8 0.00 0.00 0.00 96 1018.5
20260906100100 19 110 0.0 6.4 0.00 0.00 0.00 96 1018.4
20260906094601 19 0 0.0 0.0 0.00 0.00 0.00 96 1018.3
20260906093102 19 0 0.0 0.0 0.00 0.00 0.00 96 1018.1
20260906091601 19 0 0.0 0.0 0.00 0.00 0.00 96 1018.0
20260906090105 19 0 0.0 0.0 0.00 0.00 0.00 96 1018.0
20260906084600 19 0 0.0 0.0 0.00 0.00 0.00 96 1017.9
20260906083057 19 0 0.0 0.0 0.00 0.00 0.00 96 1018.1
20260906081603 18 0 0.0 0.0 0.00 0.00 0.00 96 1018.2
20260906074601 18 0 0.0 0.0 0.00 0.00 0.00 96 1018.5
20260906073057 18 0 0.0 0.0 0.00 0.00 0.00 96 1018.4
20260906071600 19 0 0.0 0.0 0.00 0.00 0.00 96 1018.3
20260906070058 19 0 0.0 0.0 0.00 0.00 0.00 96 1018.5
20260906064558 19 0 0.0 0.0 0.00 0.00 0.00 96 1018.6
20260906063058 19 0 0.0 0.0 0.00 0.00 0.00 96 1018.6
20260906061600 19 0 0.0 0.0 0.00 0.00 0.00 96 1018.7
20260906060106 19 0 0.0 0.0 0.00 0.00 0.00 95 1018.8
20260906054607 19 0 0.0 0.0 0.00 0.00 0.00 95 1018.7
20260906053101 19 0 0.0 0.0 0.00 0.00 0.00 95 1018.7
20260906051613 19 0 0.0 0.0 0.00 0.00 0.00 95 1018.8
20260906050059 19 0 0.0 0.0 0.00 0.00 0.00 95 1018.8
20260906044606 19 0 0.0 0.0 0.00 0.00 0.00 95 1018.7
20260906043101 20 0 0.0 0.0 0.00 0.00 0.00 95 1018.9
20260906041602 20 0 0.0 0.0 0.00 0.00 0.00 94 1018.9
20260906040136 20 0 0.0 0.0 0.00 0.00 0.00 94 1019.1
20260906034605 20 0 0.0 0.0 0.00 0.00 0.00 94 1018.8
20260906033106 20 0 0.0 0.0 0.00 0.00 0.00 94 1019.1
20260906031601 20 0 0.0 0.0 0.00 0.00 0.00 94 1018.6
20260906030057 20 0 0.0 0.0 0.00 0.00 0.00 94 1018.6
20260906024612 20 0 0.0 0.0 0.00 0.00 0.00 93 1018.5
20260906023103 20 0 0.0 0.0 0.00 0.00 0.00 94 1018.3
20260906021554 20 0 0.0 0.0 0.00 0.00 0.00 93 1017.8
20260906020103 21 0 0.0 0.0 0.00 0.00 0.00 92 1017.3
20260906014559 21 0 0.0 0.0 0.00 0.00 0.00 91 1017.2
20260906013102 21 0 0.0 0.0 0.00 0.00 0.00 90 1016.8
20260906011604 22 0 0.0 0.0 0.00 0.00 0.00 87 1016.8
20260906010106 22 0 0.0 0.0 0.00 0.00 0.00 86 1016.8
20260906004555 24 0 0.0 0.0 0.00 0.00 0.00 80 1016.8
20260906003102 25 0 0.0 0.0 0.00 0.00 0.00 76 1016.5
20260906001608 26 0 0.0 0.0 0.00 0.00 0.00 72 1016.4
20260906000107 27 0 0.0 0.0 0.00 0.00 0.00 69 1016.5
20260905234604 27 0 0.0 11.3 0.00 0.00 0.00 71 1016.4
20260905233104 27 0 0.0 1.6 0.00 0.00 0.00 71 1016.1
20260905231600 25 0 0.0 9.7 0.00 0.00 0.00 75 1016.4
20260905230105 26 0 0.0 14.5 0.00 0.00 0.00 75 1015.9
20260905224618 26 0 1.6 17.7 0.00 0.00 0.00 75 1016.2
20260905223116 26 0 0.0 8.0 0.00 0.00 0.00 75 1016.1
20260905221605 26 0 0.0 11.3 0.00 0.00 0.00 73 1016.0
20260905220108 26 0 0.0 17.7 0.00 0.00 0.00 73 1015.8
20260905214605 27 63 0.0 17.7 0.00 0.00 0.00 72 1015.9
20260905213105 27 77 1.6 14.5 0.00 0.00 0.00 70 1016.1
20260905211557 28 0 3.2 19.3 0.00 0.00 0.00 68 1016.3
20260905210108 28 86 1.6 9.7 0.00 0.00 0.00 68 1016.6
20260905204601 28 133 0.0 4.8 0.00 0.00 0.00 68 1017.0
20260905203102 28 0 0.0 6.4 0.00 0.00 0.00 69 1016.9
20260905201607 28 0 0.0 4.8 0.00 0.00 0.00 70 1017.1
20260905200106 29 49 0.0 1.6 0.00 0.00 0.00 67 1017.6
20260905194559 28 0 0.0 3.2 0.00 0.00 0.00 69 1017.6
20260905193104 29 0 0.0 6.4 0.00 0.00 0.00 67 1017.4
20260905191608 30 0 0.0 4.8 0.00 0.00 0.00 64 1017.3
20260905184608 28 0 0.0 8.0 0.00 0.00 0.00 70 1017.4
20260905183057 28 0 1.6 8.0 0.00 0.00 0.00 69 1017.7
20260905181604 27 0 0.0 3.2 0.00 0.00 0.00 72 1017.9
20260905180109 27 0 0.0 4.8 0.00 0.00 0.00 75 1018.1
20260905174559 26 0 0.0 4.8 0.00 0.00 0.00 78 1018.2
20260905173114 26 0 0.0 1.6 0.00 0.00 0.00 78 1018.3
20260905171603 25 0 0.0 3.2 0.00 0.00 0.00 82 1018.7
20260905170110 25 0 0.0 1.6 0.00 0.00 0.00 80 1018.4
20260905164609 25 0 0.0 1.6 0.00 0.00 0.00 80 1018.3
20260905163103 24 0 0.0 1.6 0.00 0.00 0.00 82 1018.6
20260905161606 25 0 0.0 3.2 0.00 0.00 0.00 81 1018.2
20260905160100 25 0 0.0 4.8 0.00 0.00 0.00 83 1018.1
20260905154610 24 118 1.6 6.4 0.00 0.00 0.00 84 1018.0
20260905153104 24 105 3.2 8.0 0.00 0.00 0.00 86 1018.1
20260905151604 22 66 3.2 6.4 0.00 0.00 0.00 92 1018.3